This demonstration page uses our WeatherBlox Daily Observations layout. Learn more.

Left ArrowRight Arrow

Hourly Observations for September 15, 2017

Temp ( °F °C ) Dew Point ( °F °C ) Humidity (%) Winds ( mph kmh ) Pressure ( in mb ) Visibility ( mi km ) Precip ( " mm )
12:54 am 00:54 Clear 74 23.3 56 13.3 54 54 S 9 15 29.7 1006 10 16.0934 0 0
1:54 am 01:54 Clear 72 22.2 56 13.3 57 57 SSE 9 15 29.71 1006 10 16.0934 0 0
2:54 am 02:54 Clear 71 21.7 56 13.3 59 59 SSE 7 11 29.7 1006 10 16.0934 0 0
3:54 am 03:54 Clear 69 20.6 56 13.3 63 63 SSE 10 17 29.7 1006 10 16.0934 0 0
4:54 am 04:54 Clear 69 20.6 57 13.9 66 66 S 7 11 29.71 1006 10 16.0934 0 0
5:54 am 05:54 Clear 68 20 58 14.4 70 70 S 7 11 29.71 1006 10 16.0934 0 0
6:54 am 06:54 Clear 69 20.6 58 14.4 68 68 Calm 29.73 1007 10 16.0934 0 0
7:54 am 07:54 Sunny 70 21.1 60 15.6 71 71 ESE 6 9 29.73 1007 10 16.0934 0 0
8:54 am 08:54 Sunny 73 22.8 61 16.1 66 66 SSE 12 19 29.72 1006 10 16.0934 0 0
9:54 am 09:54 Sunny 79 26.1 63 17.2 58 58 SSE 13 20 29.72 1007 10 16.0934 0 0
10:54 am 10:54 Mostly Sunny 83 28.3 63 17.2 51 51 S 18 30 29.73 1007 10 16.0934 0 0
11:54 am 11:54 Sunny 87 30.6 62 16.7 43 43 S 16 26 29.71 1006 10 16.0934 0 0
12:54 pm 12:54 Sunny 90 32.2 60 15.6 37 37 S 17 28 29.69 1005 10 16.0934 0 0
1:54 pm 13:54 Sunny 90 32.2 60 15.6 37 37 S 20 31 29.68 1005 10 16.0934 0 0
2:54 pm 14:54 Sunny 89 31.7 59 15 36 36 S 21 33 29.67 1005 10 16.0934 0 0
3:54 pm 15:54 Sunny 89 31.7 57 13.9 34 34 S 22 35 29.67 1005 10 16.0934 0 0
4:54 pm 16:54 Sunny 91 32.8 58 14.4 33 33 SSE 23 37 29.67 1005 10 16.0934 0 0
5:54 pm 17:54 Sunny 90 32.2 61 16.1 38 38 SSE 20 31 29.67 1005 10 16.0934 0 0
6:54 pm 18:54 Sunny 88 31.1 56 13.3 34 34 S 20 31 29.68 1005 10 16.0934 0 0
7:54 pm 19:54 Clear 83 28.3 57 13.9 41 41 SSE 14 22 29.7 1006 10 16.0934 0 0
8:54 pm 20:54 Clear 79 26.1 60 15.6 52 52 S 10 17 29.74 1007 10 16.0934 0 0
9:54 pm 21:54 Clear 78 25.6 61 16.1 56 56 SSE 9 15 29.75 1007 10 16.0934 0 0
10:54 pm 22:54 Clear 77 25 63 17.2 62 62 SSE 13 20 29.77 1008 10 16.0934 0 0
11:54 pm 23:54 Clear 78 25.6 66 18.9 67 67 SE 16 26 29.76 1008 10 16.0934 0 0

Powered by AerisWeather